This demonstration page uses our WeatherBlox Daily Observations layout. Learn more.

Left ArrowRight Arrow

Hourly Observations for February 26, 2020

Temp ( °F °C ) Dew Point ( °F °C ) Humidity (%) Winds ( mph kmh ) Pressure ( in mb ) Visibility ( mi km ) Precip ( " mm )
12:56 am 00:56 Clear 21 -6.1 17 -8.3 85 85 NNW 12 19 30.50 1033 10 16 0.00 0.00
1:56 am 01:56 Clear 21 -6.1 17 -8.3 85 85 NNW 9 15 30.50 1033 10 16 0.00 0.00
2:56 am 02:56 Clear 19 -7.2 16 -8.9 88 88 NNW 10 17 30.49 1033 10 16 0.00 0.00
3:56 am 03:56 Clear 18 -7.8 15 -9.4 88 88 NNW 10 17 30.50 1033 10 16 0.00 0.00
4:22 am 04:22 Mostly Cloudy 18 -8 16 -9 93 93 NNW 12 19 30.59 1036 10 16 0.00 0.00
4:56 am 04:56 Partly Cloudy 16 -8.9 13 -10.6 88 88 NNW 9 15 30.50 1033 10 16 0.00 0.00
5:56 am 05:56 Clear 14 -10 12 -11.1 92 92 NW 9 15 30.51 1033 10 16 0.00 0.00
6:56 am 06:56 Clear 13 -10.6 11 -11.7 92 92 NW 8 13 30.51 1033 10 16 0.00 0.00
7:56 am 07:56 Sunny 16 -8.9 14 -10 92 92 NW 7 11 30.52 1033 10 16 0.00 0.00
8:56 am 08:56 Sunny 22 -5.6 18 -7.8 85 85 NNW 7 11 30.52 1033 10 16 0.00 0.00
9:56 am 09:56 Sunny 28 -2.2 21 -6.1 75 75 N 10 17 30.50 1033 10 16 0.00 0.00
10:56 am 10:56 Sunny 33 0.6 22 -5.6 64 64 NNW 5 7 30.47 1032 10 16 0.00 0.00
11:56 am 11:56 Mostly Sunny 31 -0.6 21 -6.1 67 67 W 7 11 30.46 1032 10 16 0.00 0.00
12:56 pm 12:56 Mostly Cloudy 32 0 17 -8.3 54 54 WNW 12 19 30.43 1031 10 16 0.00 0.00
1:56 pm 13:56 Partly Cloudy 34 1.1 14 -10 44 44 WNW 10 17 30.40 1030 10 16 0.00 0.00
2:56 pm 14:56 Sunny 34 1.1 14 -10 44 44 W 14 22 30.37 1029 10 16 0.00 0.00
3:56 pm 15:56 Sunny 34 1.1 15 -9.4 46 46 SW 13 20 30.35 1028 10 16 0.00 0.00
4:56 pm 16:56 Sunny 33 0.6 14 -10 45 45 WSW 13 20 30.33 1027 10 16 0.00 0.00
5:56 pm 17:56 Sunny 31 -0.6 19 -7.2 61 61 WSW 16 26 30.32 1027 10 16 0.00 0.00
6:56 pm 18:56 Clear 28 -2.2 20 -6.7 72 72 SW 10 17 30.31 1027 10 16 0.00 0.00
7:56 pm 19:56 Clear 27 -2.8 21 -6.1 78 78 SSW 10 17 30.29 1026 10 16 0.00 0.00
8:56 pm 20:56 Clear 26 -3.3 22 -5.6 84 84 SSW 13 20 30.25 1024 10 16 0.00 0.00
9:56 pm 21:56 Partly Cloudy 27 -2.8 22 -5.6 81 81 SW 14 22 30.23 1024 10 16 0.00 0.00
10:56 pm 22:56 Mostly Cloudy 28 -2.2 22 -5.6 78 78 SW 13 20 30.20 1023 10 16 0.00 0.00
11:56 pm 23:56 Clear 28 -2.2 22 -5.6 78 78 SW 12 19 30.18 1022 10 16 0.00 0.00

Powered by AerisWeather